sat.trackr.live / text

‹ back to catalog

TIANQI-22

NORAD 57793 · 2023-135B

PAYLOAD ACTIVE UNKNOWN

§ Identity

Operator
Country
PRC
Launch date
2023-09-05
Launch site
SEAL
Launch vehicle
Mass (kg)
RCS (m²)

External: N2YO · Heavens-Above · Gunter

§ Orbital elements

Epoch: 2026-09-21T20:50:35.670624Z

Period
101.18 min
Inclination
49.9675°
Eccentricity
0.0011813
Mean motion
14.23164828 rev/d
Perigee alt
806.2 km
Apogee alt
823.2 km
Semi-major
7,192.8 km
B*
1.0792e-4
RAAN
105.6163°
Arg perigee
239.1451°
Mean anomaly
120.8299°
Rev number
15,839

§ Raw data

TIANQI-221 57793U 23135B   26264.86846841  .00000087  00000+0  10792-3 0  99962 57793  49.9675 105.6163 0011813 239.1451 120.8299 14.23164828158390

JSON: /api/v1/satellites/57793 · /tle

For live sub-satellite position, see the globe view (requires WebGL).

§ Visibility from observer

Set your observer location to see the next 7 days of passes ≥ 10°. The values pass through the URL so the page stays shareable.

No JS? Fill the form by hand. The geolocation button needs JavaScript.

§ Radio — SatNOGS DB

ModeDescriptionDownlinkUplink
LoRa LoRa 400.450 MHz

1 transmitter · refreshed weekly from db.satnogs.org